Flag for Canada Weather past 2 weeks in Alert, Nunavut Territory, Canada

Now
-2 °F

Partly cloudy.


Feels Like: -13 °F
Forecast: 1 / 8 °F
Wind: 5 mph from Northeast

Location: Alert Airport

Current Time: Oct 1, 2014 at 9:15:26 AM

Latest Report: Oct 1, 2014 at 8:00 AM


Visibility: 7 mi

Pressure: 30.07 "Hg

Humidity: 100%

Dew point: -2 °F

Location of AlertLocation

Historic Weather in Alert — Graph

°F

Alert temperature yesterday

Maximum temperature yesterday: 16 °F (at 12:00 AM)
Minimum temperature yesterday: 9 °F (at 11:00 AM)
Average temperature yesterday: 13 °F

Past Weeks' High & Low Weather Summary

 TemperatureHumidityPressure
High23 °F (Sep 23, 5:00 AM)100% (Sep 16, 8:00 AM)30.13 "Hg (Sep 16, 8:00 AM)
Low-2 °F (Oct 1, 8:00 AM)68% (Sep 23, 9:00 AM)29.40 "Hg (Sep 22, 3:00 AM)
Average14 °F87%29.86 "Hg
* Reported Sep 16 8:00 AM — Oct 1 8:00 AM, Alert, Weather by CustomWeather, © 2014

Note: Actual official high and low records may vary slightly from our data, if they occured in-between our weather recording intervals... More about our weather records

Advertising

Alert weather history for previous 24 hours

 ConditionsComfort  
Time TempWeatherWind HumidityBarometerVisibility
8:00 AM
Oct 1
-2 °FPartly cloudy.5 mph100%30.07 "Hg7 mi
7:00 AM0 °FLight snow. Low clouds.7 mph92%30.06 "Hg7 mi
6:00 AM5 °FLight snow. Mostly cloudy.14 mph92%30.05 "Hg4 mi
5:00 AM9 °FLight snow. Overcast.13 mph92%30.04 "Hg6 mi
4:00 AM10 °FLight snow. Overcast.14 mph92%30.03 "Hg7 mi
3:00 AM12 °FLight snow. Overcast.18 mph92%30.01 "Hg7 mi
2:00 AM14 °FLight snow. Overcast.9 mph85%30.01 "Hg10 mi
1:00 AM14 °FLight snow. Overcast.8 mph85%30.01 "Hg10 mi
12:00 AM14 °FLight snow. Overcast.10 mph85%30.01 "Hg7 mi
11:00 PM
Sep 30
14 °FLight snow. Overcast.15 mph85%30.01 "Hg7 mi
10:00 PM14 °FLight snow. Overcast.5 mph85%30.02 "Hg7 mi
9:00 PM14 °FLight snow. Overcast.8 mph85%30.02 "Hg5 mi
8:00 PM14 °FLight snow. Overcast.2 mph85%30.02 "Hg5 mi
7:00 PM14 °FLight snow. Overcast.No wind85%30.02 "Hg5 mi
6:00 PM14 °FLight snow. Overcast.3 mph85%30.02 "Hg3 mi
5:00 PM12 °FLight snow. Overcast.2 mph92%30.02 "Hg7 mi
4:00 PM12 °FLight snow. Partly sunny.No wind85%30.01 "Hg7 mi
3:00 PM12 °FLight snow. Overcast.3 mph85%30.01 "Hg7 mi
1:00 PM12 °FPartly sunny.7 mph85%30.01 "Hg10 mi
11:00 AM9 °FBroken clouds.13 mph85%30.03 "Hg10 mi
10:00 AM10 °FPartly sunny.8 mph85%30.03 "Hg10 mi
9:00 AM12 °FLight snow. Overcast.10 mph85%30.04 "Hg6 mi
Weather by CustomWeather, © 2014

See weather overviewHow to use our weather pages